Location: Nairn
(57.5833°N, 3.8667°W)
Time: 19:20:36
(UTC+00:00)

Cosmos 2322 Rocket - Pass Details

Date: 07 August 2020
Orbit: 831 x 852 km, 71.0° (Epoch: 24 September)

Event Time Altitude Azimuth Distance (km) Brightness Sun altitude
Rises 00:07:03 0° 321° (NW) 3,418 6.3 -16.0°
Reaches altitude 10° 00:09:54 10° 308° (NW) 2,482 5.2 -16.0°
Maximum altitude 00:14:22 24° 256° (WSW) 1,677 3.6 -16.1°
Enters shadow 00:17:08 17° 218° (SW) 2,021 3.7 -16.1°
